Location: Kergonan
(48.2337°N, 4.5518°W)
Time: 21:29:23
(UTC+00:00)

Cosmos 773 Rocket - Pass Details

Date: 18 January 2020
Orbit: 746 x 776 km, 74.1° (Epoch: 17 February)

Event Time Altitude Azimuth Distance (km) Brightness Sun altitude
Rises 06:08:28 0° 208° (SSW) 3,244 7.1 -18.5°
Reaches altitude 10° 06:10:51 10° 211° (SSW) 2,321 6.3 -18.1°
Maximum altitude 06:16:07 69° 295° (WNW) 833 3.9 -17.2°
Drops below altitude 10° 06:21:24 10° 19° (NNE) 2,330 6.6 -16.4°
Sets 06:23:48 0° 22° (NNE) 3,258 7.4 -16.0°
